SUN48X LMML-EGGD

Flight info

Callsign SUN48X
Flight time 3h 14m
Altitude 36000
Route GZO M622 ADEXI DCT RUGOX DCT MADKA DCT AJO DCT OMEDA DCT MERLU DCT PIGOS DCT BARSO DCT OKTET DCT GIPNO DCT BULOL DCT IDAVO DCT BAGBI DCT SIZZA DCT LAULY DCT BRY DCT CLM DCT KOPOR DCT KESAX DCT KUNAV T421 ICTAM
Aircraft B738/M-SDE2E3FGHIRWXY/LB1

Departure

Time 2026-05-04 15:00
Airport Malta International Airport (LMML)

Arrival

Time 2026-05-04 18:14
Airport Bristol Airport (EGGD)
Time Latitude Longitude Altitude Speed Heading
2026-05-04 14:31 35.84810 14.49514 258 ft 0 kts 360°
2026-05-04 14:44 35.84801 14.49514 258 ft 3 kts 358°
2026-05-04 14:44 35.84781 14.49516 258 ft 3 kts 350°
2026-05-04 14:44 35.84761 14.49522 258 ft 3 kts 342°
2026-05-04 14:44 35.84746 14.49528 258 ft 1 kts 340°
2026-05-04 14:45 35.84741 14.49530 258 ft 0 kts 340°
2026-05-04 14:46 35.84744 14.49526 258 ft 2 kts 316°
2026-05-04 14:47 35.84757 14.49491 258 ft 6 kts 295°
2026-05-04 14:47 35.84785 14.49452 258 ft 6 kts 314°
2026-05-04 14:47 35.84814 14.49416 258 ft 6 kts 314°
2026-05-04 14:47 35.84830 14.49395 258 ft 1 kts 314°
2026-05-04 14:48 35.84841 14.49381 258 ft 6 kts 314°
2026-05-04 14:48 35.84892 14.49318 258 ft 13 kts 314°
2026-05-04 14:48 35.84936 14.49233 257 ft 11 kts 281°
2026-05-04 14:48 35.84905 14.49157 257 ft 10 kts 225°
2026-05-04 14:49 35.84917 14.49082 257 ft 10 kts 311°
2026-05-04 14:49 35.84963 14.49003 258 ft 12 kts 298°
2026-05-04 14:49 35.84985 14.48927 258 ft 6 kts 285°
2026-05-04 14:49 35.84986 14.48921 258 ft 0 kts 285°
2026-05-04 14:50 35.84992 14.48895 258 ft 7 kts 286°
2026-05-04 14:50 35.85003 14.48846 258 ft 1 kts 285°
2026-05-04 14:56 35.85008 14.48822 259 ft 4 kts 285°
2026-05-04 14:57 35.85016 14.48786 260 ft 6 kts 285°
2026-05-04 14:57 35.85032 14.48724 262 ft 9 kts 291°
2026-05-04 14:57 35.85060 14.48656 265 ft 9 kts 299°
2026-05-04 14:57 35.85065 14.48593 267 ft 4 kts 206°
2026-05-04 14:58 35.85053 14.48607 266 ft 3 kts 128°
2026-05-04 14:58 35.85051 14.48610 266 ft 0 kts 133°
2026-05-04 14:59 35.85048 14.48613 266 ft 7 kts 133°
2026-05-04 14:59 35.84816 14.48902 257 ft 87 kts 135°
2026-05-04 14:59 35.83359 14.50670 644 ft 179 kts 136°
2026-05-04 15:00 35.82372 14.51575 1613 ft 185 kts 164°
2026-05-04 15:00 35.81088 14.51417 2236 ft 201 kts 208°
2026-05-04 15:00 35.80126 14.50079 2504 ft 223 kts 242°
2026-05-04 15:01 35.78635 14.46560 3397 ft 245 kts 240°
2026-05-04 15:01 35.77749 14.44669 3792 ft 261 kts 239°
2026-05-04 15:01 35.76815 14.42731 4537 ft 266 kts 239°
2026-05-04 15:01 35.75869 14.40751 5280 ft 270 kts 244°
2026-05-04 15:02 35.75359 14.38550 6046 ft 270 kts 268°
2026-05-04 15:02 35.75594 14.36268 6858 ft 267 kts 291°
2026-05-04 15:02 35.76491 14.34303 7649 ft 266 kts 312°
2026-05-04 15:02 35.77932 14.32833 8249 ft 274 kts 330°
2026-05-04 15:03 35.79662 14.31869 9059 ft 273 kts 338°
2026-05-04 15:03 35.81450 14.31026 9749 ft 278 kts 339°
2026-05-04 15:03 35.83288 14.30183 10384 ft 282 kts 338°
2026-05-04 15:03 35.85180 14.29310 10677 ft 302 kts 338°
2026-05-04 15:04 35.87211 14.28361 10858 ft 323 kts 338°
2026-05-04 15:04 35.89375 14.27341 11059 ft 341 kts 338°
2026-05-04 15:04 35.91578 14.26295 11604 ft 346 kts 338°
2026-05-04 15:04 35.93836 14.25220 12250 ft 349 kts 337°
2026-05-04 15:05 35.96098 14.24141 12937 ft 351 kts 337°
2026-05-04 15:05 35.98386 14.23047 13639 ft 352 kts 337°
2026-05-04 15:05 36.00671 14.21953 14270 ft 354 kts 336°
2026-05-04 15:05 36.02983 14.20842 14811 ft 357 kts 336°
2026-05-04 15:06 36.05179 14.19413 15370 ft 358 kts 324°
2026-05-04 15:06 36.07213 14.17627 15972 ft 360 kts 322°
2026-05-04 15:06 36.09262 14.15760 16539 ft 362 kts 322°
2026-05-04 15:07 36.13330 14.12061 17633 ft 368 kts 323°
2026-05-04 15:07 36.15412 14.10192 18179 ft 371 kts 323°
2026-05-04 15:07 36.17511 14.08318 18694 ft 374 kts 323°
2026-05-04 15:07 36.19625 14.06438 19159 ft 376 kts 323°
2026-05-04 15:08 36.21756 14.04547 19644 ft 378 kts 323°
2026-05-04 15:08 36.23899 14.02646 20121 ft 380 kts 323°
2026-05-04 15:08 36.26055 14.00733 20590 ft 382 kts 323°
2026-05-04 15:08 36.28222 13.98809 21053 ft 384 kts 322°
2026-05-04 15:09 36.30401 13.96874 21507 ft 387 kts 322°
2026-05-04 15:09 36.32592 13.94926 21954 ft 389 kts 322°
2026-05-04 15:09 36.34795 13.92967 22386 ft 391 kts 322°
2026-05-04 15:10 36.39241 13.89007 23227 ft 396 kts 322°
2026-05-04 15:10 36.41479 13.87011 23636 ft 398 kts 322°
2026-05-04 15:10 36.45990 13.82985 24348 ft 401 kts 322°
2026-05-04 15:11 36.48263 13.80954 24684 ft 403 kts 322°
2026-05-04 15:11 36.50547 13.78912 25033 ft 405 kts 322°
2026-05-04 15:11 36.52834 13.76863 25379 ft 406 kts 322°
2026-05-04 15:11 36.55125 13.74806 25719 ft 407 kts 322°
2026-05-04 15:12 36.57427 13.72737 26060 ft 409 kts 322°
2026-05-04 15:12 36.59732 13.70665 26384 ft 410 kts 322°
2026-05-04 15:12 36.62048 13.68580 26700 ft 412 kts 322°
2026-05-04 15:12 36.64374 13.66485 27009 ft 413 kts 322°
2026-05-04 15:13 36.66706 13.64383 27320 ft 415 kts 322°
2026-05-04 15:13 36.69047 13.62273 27621 ft 416 kts 322°
2026-05-04 15:13 36.71389 13.60159 28013 ft 415 kts 322°
2026-05-04 15:13 36.73730 13.58046 28341 ft 416 kts 322°
2026-05-04 15:14 36.76078 13.55923 28583 ft 418 kts 322°
2026-05-04 15:14 36.78441 13.53786 28825 ft 420 kts 322°
2026-05-04 15:14 36.80806 13.51644 29099 ft 422 kts 322°
2026-05-04 15:14 36.83185 13.49489 29378 ft 423 kts 322°
2026-05-04 15:15 36.85581 13.47316 29490 ft 428 kts 321°
2026-05-04 15:15 36.87964 13.45153 29670 ft 431 kts 322°
2026-05-04 15:15 36.90387 13.42953 29972 ft 431 kts 321°
2026-05-04 15:16 36.95236 13.38545 30438 ft 433 kts 321°
2026-05-04 15:16 36.97673 13.36327 30688 ft 433 kts 322°
2026-05-04 15:16 37.02531 13.31899 31254 ft 430 kts 321°
2026-05-04 15:17 37.04947 13.29695 31538 ft 429 kts 321°
2026-05-04 15:17 37.09759 13.25298 32062 ft 428 kts 321°
2026-05-04 15:17 37.12163 13.23099 32338 ft 426 kts 321°
2026-05-04 15:18 37.13778 13.21621 32512 ft 426 kts 321°
2026-05-04 15:18 37.16134 13.19463 32771 ft 425 kts 321°
2026-05-04 15:18 37.18518 13.17278 33034 ft 424 kts 321°
2026-05-04 15:19 37.23298 13.12896 33617 ft 420 kts 321°
2026-05-04 15:19 37.25623 13.10761 33843 ft 420 kts 321°
2026-05-04 15:19 37.30356 13.06409 34159 ft 422 kts 321°
2026-05-04 15:20 37.32716 13.04237 34396 ft 420 kts 320°
2026-05-04 15:20 37.35069 13.02074 34627 ft 418 kts 321°
2026-05-04 15:20 37.37438 12.99953 34797 ft 419 kts 321°
2026-05-04 15:20 37.39829 12.97856 34954 ft 419 kts 322°
2026-05-04 15:21 37.42221 12.95772 35155 ft 418 kts 322°
2026-05-04 15:21 37.44611 12.93691 35337 ft 417 kts 322°
2026-05-04 15:21 37.49368 12.89532 35721 ft 415 kts 321°
2026-05-04 15:22 37.51728 12.87461 36006 ft 412 kts 321°
2026-05-04 15:22 37.54073 12.85398 36126 ft 412 kts 321°
2026-05-04 15:22 37.58795 12.81232 36145 ft 415 kts 321°
2026-05-04 15:23 37.63520 12.77058 36128 ft 414 kts 321°
2026-05-04 15:23 37.68243 12.72879 36141 ft 415 kts 321°
2026-05-04 15:24 37.77698 12.64492 36133 ft 416 kts 321°
2026-05-04 15:25 37.82432 12.60285 36132 ft 416 kts 321°
2026-05-04 15:26 37.89546 12.53948 36135 ft 417 kts 321°
2026-05-04 15:26 37.96666 12.47590 36127 ft 418 kts 321°
2026-05-04 15:27 38.03716 12.41279 36128 ft 417 kts 321°
2026-05-04 15:28 38.10820 12.34904 36127 ft 417 kts 321°
2026-05-04 15:29 38.17922 12.28512 36112 ft 417 kts 321°
2026-05-04 15:30 38.34497 12.13545 36097 ft 417 kts 321°
2026-05-04 15:31 38.41595 12.07108 36096 ft 417 kts 320°
2026-05-04 15:32 38.53370 11.96394 36101 ft 418 kts 320°
2026-05-04 15:34 38.65213 11.85574 36089 ft 418 kts 320°
2026-05-04 15:34 38.72312 11.79068 36089 ft 418 kts 320°
2026-05-04 15:35 38.79408 11.72546 36092 ft 419 kts 320°
2026-05-04 15:36 38.86504 11.66009 36085 ft 419 kts 320°
2026-05-04 15:36 38.91232 11.61645 36088 ft 419 kts 320°
2026-05-04 15:37 38.95943 11.57288 36081 ft 419 kts 320°
2026-05-04 15:37 39.00667 11.52912 36084 ft 419 kts 320°
2026-05-04 15:38 39.05387 11.48533 36092 ft 419 kts 320°
2026-05-04 15:38 39.10131 11.44124 36083 ft 419 kts 320°
2026-05-04 15:39 39.14848 11.39733 36081 ft 418 kts 320°
2026-05-04 15:40 39.21889 11.33164 36083 ft 418 kts 320°
2026-05-04 15:40 39.26597 11.28763 36098 ft 418 kts 320°
2026-05-04 15:41 39.31283 11.24374 36087 ft 418 kts 320°
2026-05-04 15:41 39.36003 11.19946 36084 ft 417 kts 320°
2026-05-04 15:42 39.40696 11.15536 36071 ft 417 kts 320°
2026-05-04 15:42 39.45382 11.11126 36086 ft 417 kts 320°
2026-05-04 15:43 39.50070 11.06706 36085 ft 416 kts 320°
2026-05-04 15:43 39.54753 11.02282 36087 ft 416 kts 320°
2026-05-04 15:44 39.59422 10.97865 36081 ft 416 kts 320°
2026-05-04 15:44 39.64086 10.93444 36084 ft 416 kts 320°
2026-05-04 15:45 39.68774 10.88994 36088 ft 416 kts 320°
2026-05-04 15:45 39.73446 10.84551 36083 ft 416 kts 320°
2026-05-04 15:46 39.78104 10.80114 36082 ft 416 kts 320°
2026-05-04 15:46 39.82768 10.75663 36081 ft 415 kts 319°
2026-05-04 15:47 39.87415 10.71221 36079 ft 415 kts 319°
2026-05-04 15:47 39.92065 10.66769 36079 ft 414 kts 319°
2026-05-04 15:48 39.96706 10.62317 36079 ft 414 kts 319°
2026-05-04 15:48 40.03663 10.55630 36082 ft 414 kts 318°
2026-05-04 15:49 40.08294 10.51168 36073 ft 414 kts 318°
2026-05-04 15:49 40.12928 10.46696 36074 ft 414 kts 318°
2026-05-04 15:50 40.17567 10.42212 36072 ft 414 kts 318°
2026-05-04 15:50 40.22198 10.37727 36071 ft 415 kts 318°
2026-05-04 15:51 40.26839 10.33225 36073 ft 415 kts 318°
2026-05-04 15:51 40.31470 10.28725 36071 ft 415 kts 318°
2026-05-04 15:52 40.36104 10.24213 36061 ft 415 kts 318°
2026-05-04 15:52 40.40739 10.19694 36061 ft 415 kts 318°
2026-05-04 15:53 40.45372 10.15167 36064 ft 415 kts 318°
2026-05-04 15:53 40.49984 10.10654 36061 ft 417 kts 317°
2026-05-04 15:54 40.54635 10.06093 36061 ft 418 kts 317°
2026-05-04 15:54 40.59299 10.01513 36060 ft 419 kts 317°
2026-05-04 15:55 40.63976 9.96911 36059 ft 420 kts 317°
2026-05-04 15:55 40.68653 9.92302 36055 ft 421 kts 317°
2026-05-04 15:56 40.73352 9.87663 36066 ft 422 kts 317°
2026-05-04 15:56 40.78055 9.83010 36062 ft 423 kts 317°
2026-05-04 15:57 40.82759 9.78349 36055 ft 423 kts 316°
2026-05-04 15:57 40.87471 9.73671 36043 ft 423 kts 316°
2026-05-04 15:58 40.92174 9.68995 36050 ft 423 kts 316°
2026-05-04 15:58 40.96872 9.64314 36048 ft 423 kts 316°
2026-05-04 15:59 41.01575 9.59619 36047 ft 423 kts 316°
2026-05-04 15:59 41.06269 9.54924 36046 ft 423 kts 316°
2026-05-04 16:00 41.10965 9.50219 36062 ft 422 kts 316°
2026-05-04 16:00 41.15653 9.45513 36043 ft 423 kts 316°
2026-05-04 16:01 41.20342 9.40797 36055 ft 423 kts 315°
2026-05-04 16:01 41.25035 9.36069 36055 ft 424 kts 315°
2026-05-04 16:02 41.29545 9.31093 36058 ft 420 kts 312°
2026-05-04 16:03 41.36225 9.23516 36057 ft 421 kts 313°
2026-05-04 16:03 41.40719 9.18505 36057 ft 421 kts 313°
2026-05-04 16:04 41.44444 9.14344 36069 ft 420 kts 313°
2026-05-04 16:04 41.51876 9.06009 36068 ft 420 kts 312°
2026-05-04 16:05 41.56335 9.00992 36075 ft 420 kts 312°
2026-05-04 16:06 41.62306 8.94258 36056 ft 420 kts 312°
2026-05-04 16:07 41.71222 8.84171 36064 ft 422 kts 313°
2026-05-04 16:08 41.80736 8.74692 36059 ft 436 kts 324°
2026-05-04 16:09 41.94079 8.65023 36054 ft 439 kts 323°
2026-05-04 16:10 42.04819 8.57092 36042 ft 441 kts 323°
2026-05-04 16:11 42.15588 8.49106 36040 ft 442 kts 323°
2026-05-04 16:12 42.31754 8.37059 36057 ft 442 kts 323°
2026-05-04 16:13 42.42559 8.28974 36028 ft 444 kts 322°
2026-05-04 16:14 42.53351 8.20868 36029 ft 443 kts 322°
2026-05-04 16:16 42.66821 8.10701 36028 ft 443 kts 322°
2026-05-04 16:17 42.80262 8.00506 36033 ft 443 kts 322°
2026-05-04 16:18 42.91046 7.92288 36029 ft 445 kts 322°
2026-05-04 16:19 43.04597 7.81915 36022 ft 448 kts 322°
2026-05-04 16:20 43.18206 7.71427 36038 ft 449 kts 322°
2026-05-04 16:22 43.31795 7.60886 36030 ft 448 kts 322°
2026-05-04 16:23 43.48064 7.48194 36039 ft 449 kts 322°
2026-05-04 16:25 43.64244 7.35371 36041 ft 445 kts 319°
2026-05-04 16:26 43.82207 7.18787 36047 ft 444 kts 319°
2026-05-04 16:28 43.95051 7.06955 36080 ft 441 kts 319°
2026-05-04 16:29 44.12967 6.90338 36077 ft 443 kts 319°
2026-05-04 16:31 44.25802 6.78355 36095 ft 446 kts 319°
2026-05-04 16:32 44.41334 6.63765 36079 ft 449 kts 319°
2026-05-04 16:33 44.51709 6.53966 36073 ft 452 kts 319°
2026-05-04 16:34 44.59403 6.46665 36074 ft 452 kts 319°
2026-05-04 16:35 44.75056 6.31736 36075 ft 454 kts 319°
2026-05-04 16:36 44.82875 6.24241 36097 ft 453 kts 319°
2026-05-04 16:37 44.90672 6.16743 36048 ft 450 kts 319°
2026-05-04 16:38 45.00959 6.06812 36071 ft 449 kts 319°
2026-05-04 16:39 45.13998 5.94151 36023 ft 458 kts 319°
2026-05-04 16:40 45.24551 5.83862 36012 ft 459 kts 319°
2026-05-04 16:41 45.37650 5.71020 36044 ft 458 kts 319°
2026-05-04 16:43 45.50734 5.58117 36016 ft 459 kts 319°
2026-05-04 16:43 45.58648 5.50379 36014 ft 461 kts 321°
2026-05-04 16:45 45.75056 5.35884 36022 ft 463 kts 322°
2026-05-04 16:46 45.88725 5.23578 36013 ft 464 kts 322°
2026-05-04 16:47 45.99651 5.13695 36026 ft 465 kts 322°
2026-05-04 16:48 46.11135 5.04862 35992 ft 474 kts 332°
2026-05-04 16:49 46.22244 4.97985 35986 ft 474 kts 331°
2026-05-04 16:50 46.34331 4.90226 35979 ft 476 kts 331°
2026-05-04 16:51 46.43410 4.84386 35981 ft 476 kts 331°
2026-05-04 16:52 46.55533 4.76551 35966 ft 477 kts 332°
2026-05-04 16:53 46.64633 4.70643 35960 ft 477 kts 332°
2026-05-04 16:54 46.76758 4.62733 35949 ft 477 kts 330°
2026-05-04 16:55 46.93677 4.48009 35955 ft 472 kts 324°
2026-05-04 16:56 47.07738 4.35597 35936 ft 471 kts 324°
2026-05-04 16:57 47.16133 4.28182 35917 ft 471 kts 324°
2026-05-04 16:58 47.27354 4.18220 35924 ft 471 kts 324°
2026-05-04 17:00 47.44188 4.03179 35916 ft 472 kts 324°
2026-05-04 17:01 47.58235 3.90540 35918 ft 473 kts 324°
2026-05-04 17:02 47.69498 3.80349 35920 ft 475 kts 324°
2026-05-04 17:03 47.77960 3.72657 35910 ft 476 kts 324°
2026-05-04 17:03 47.86399 3.64957 35914 ft 477 kts 324°
2026-05-04 17:04 47.97688 3.54610 35915 ft 477 kts 324°
2026-05-04 17:05 48.08967 3.44218 35918 ft 478 kts 324°
2026-05-04 17:06 48.17499 3.36320 35918 ft 478 kts 324°
2026-05-04 17:07 48.24579 3.29744 35911 ft 478 kts 324°
2026-05-04 17:07 48.31079 3.23687 35916 ft 477 kts 324°
2026-05-04 17:08 48.39530 3.15784 35935 ft 477 kts 324°
2026-05-04 17:09 48.45165 3.10497 35910 ft 477 kts 324°
2026-05-04 17:09 48.50787 3.05208 35908 ft 476 kts 324°
2026-05-04 17:10 48.64798 2.91966 35925 ft 474 kts 324°
2026-05-04 17:11 48.70384 2.86662 35924 ft 474 kts 324°
2026-05-04 17:12 48.78748 2.78693 35934 ft 473 kts 324°
2026-05-04 17:13 48.92697 2.65333 35942 ft 474 kts 324°
2026-05-04 17:14 49.03860 2.54577 35944 ft 475 kts 324°
2026-05-04 17:15 49.12222 2.46482 35938 ft 474 kts 324°
2026-05-04 17:16 49.23325 2.35683 35939 ft 472 kts 324°
2026-05-04 17:17 49.34419 2.24832 35941 ft 473 kts 324°
2026-05-04 17:18 49.45507 2.13930 35934 ft 472 kts 324°
2026-05-04 17:19 49.56503 2.03060 35945 ft 471 kts 325°
2026-05-04 17:20 49.67516 1.92111 35935 ft 471 kts 324°
2026-05-04 17:20 49.75756 1.83882 35938 ft 469 kts 324°
2026-05-04 17:21 49.86703 1.72895 35952 ft 469 kts 324°
2026-05-04 17:22 49.92170 1.67386 35944 ft 469 kts 324°
2026-05-04 17:23 50.03117 1.56308 35949 ft 470 kts 324°
2026-05-04 17:24 50.11364 1.47923 35950 ft 471 kts 324°
2026-05-04 17:25 50.22334 1.36713 35978 ft 471 kts 324°
2026-05-04 17:26 50.33255 1.25492 35965 ft 471 kts 324°
2026-05-04 17:27 50.46897 1.11385 35971 ft 469 kts 324°
2026-05-04 17:28 50.57486 0.99424 35972 ft 466 kts 319°
2026-05-04 17:29 50.72634 0.80334 35982 ft 466 kts 319°
2026-05-04 17:31 50.85336 0.64406 35986 ft 467 kts 319°
2026-05-04 17:31 50.92980 0.54762 36348 ft 468 kts 319°
2026-05-04 17:32 50.98059 0.48330 36763 ft 467 kts 319°
2026-05-04 17:33 51.08286 0.35320 36477 ft 476 kts 319°
2026-05-04 17:34 51.15922 0.25581 36004 ft 468 kts 319°
2026-05-04 17:34 51.18463 0.22328 35995 ft 468 kts 319°
2026-05-04 17:35 51.31006 0.05765 35982 ft 468 kts 308°
2026-05-04 17:36 51.33703 -0.00851 36001 ft 463 kts 292°
2026-05-04 17:36 51.34818 -0.05625 35441 ft 468 kts 283°
2026-05-04 17:36 51.35588 -0.10278 34989 ft 463 kts 282°
2026-05-04 17:36 51.36331 -0.14987 34299 ft 464 kts 281°
2026-05-04 17:37 51.37111 -0.19963 33575 ft 464 kts 281°
2026-05-04 17:37 51.37891 -0.24870 32828 ft 463 kts 282°
2026-05-04 17:37 51.38698 -0.29852 32134 ft 462 kts 282°
2026-05-04 17:37 51.39395 -0.34110 31500 ft 461 kts 282°
2026-05-04 17:38 51.40160 -0.38748 30822 ft 461 kts 282°
2026-05-04 17:38 51.40968 -0.43640 30197 ft 459 kts 282°
2026-05-04 17:38 51.41613 -0.47543 29755 ft 454 kts 282°
2026-05-04 17:38 51.42374 -0.52160 29218 ft 448 kts 282°
2026-05-04 17:39 51.43919 -0.61583 28170 ft 437 kts 282°
2026-05-04 17:39 51.44662 -0.66139 27673 ft 432 kts 282°
2026-05-04 17:39 51.45411 -0.70745 27150 ft 427 kts 282°
2026-05-04 17:40 51.46140 -0.75248 26649 ft 423 kts 282°
2026-05-04 17:40 51.46884 -0.79853 26129 ft 419 kts 282°
2026-05-04 17:40 51.47610 -0.84363 25620 ft 416 kts 282°
2026-05-04 17:40 51.48330 -0.88839 25132 ft 412 kts 282°
2026-05-04 17:41 51.49036 -0.93246 24646 ft 409 kts 282°
2026-05-04 17:41 51.49733 -0.97607 24177 ft 407 kts 281°
2026-05-04 17:41 51.50444 -1.02068 23678 ft 405 kts 281°
2026-05-04 17:41 51.51136 -1.06419 23109 ft 403 kts 281°
2026-05-04 17:42 51.51827 -1.10772 22568 ft 400 kts 282°
2026-05-04 17:42 51.52508 -1.15073 22090 ft 396 kts 282°
2026-05-04 17:42 51.53133 -1.19352 21671 ft 391 kts 279°
2026-05-04 17:42 51.53644 -1.23564 21292 ft 391 kts 278°
2026-05-04 17:43 51.54134 -1.27907 20899 ft 399 kts 278°
2026-05-04 17:43 51.54629 -1.32321 20498 ft 403 kts 278°
2026-05-04 17:43 51.55133 -1.36745 20082 ft 401 kts 278°
2026-05-04 17:43 51.55637 -1.41109 19676 ft 396 kts 279°
2026-05-04 17:44 51.56143 -1.45453 19284 ft 393 kts 279°
2026-05-04 17:44 51.56644 -1.49744 18900 ft 390 kts 279°
2026-05-04 17:44 51.57142 -1.54024 18513 ft 387 kts 278°
2026-05-04 17:44 51.57622 -1.58154 18140 ft 383 kts 278°
2026-05-04 17:45 51.58108 -1.62359 17679 ft 383 kts 278°
2026-05-04 17:45 51.58582 -1.66576 17288 ft 381 kts 277°
2026-05-04 17:45 51.58917 -1.70718 16902 ft 379 kts 275°
2026-05-04 17:45 51.59192 -1.74923 16512 ft 377 kts 275°
2026-05-04 17:46 51.59468 -1.79055 16134 ft 374 kts 275°
2026-05-04 17:46 51.59754 -1.83121 15877 ft 364 kts 275°
2026-05-04 17:46 51.59894 -1.87182 15449 ft 363 kts 270°
2026-05-04 17:46 51.59951 -1.91233 15079 ft 360 kts 270°
2026-05-04 17:47 51.60016 -1.95238 14739 ft 354 kts 270°
2026-05-04 17:47 51.60080 -1.99143 14476 ft 347 kts 270°
2026-05-04 17:47 51.60141 -2.02993 14247 ft 339 kts 270°
2026-05-04 17:47 51.60195 -2.06707 14094 ft 330 kts 270°
2026-05-04 17:48 51.60247 -2.10340 13996 ft 320 kts 270°
2026-05-04 17:48 51.60299 -2.13919 13749 ft 321 kts 270°
2026-05-04 17:48 51.60344 -2.17539 13499 ft 326 kts 269°
2026-05-04 17:48 51.60346 -2.21167 13227 ft 322 kts 269°
2026-05-04 17:49 51.60325 -2.24741 12957 ft 316 kts 268°
2026-05-04 17:49 51.60303 -2.28244 12689 ft 311 kts 268°
2026-05-04 17:49 51.60275 -2.31625 12410 ft 300 kts 268°
2026-05-04 17:49 51.60254 -2.34918 12139 ft 289 kts 268°
2026-05-04 17:50 51.60239 -2.38163 11884 ft 285 kts 268°
2026-05-04 17:50 51.60225 -2.41286 11644 ft 281 kts 267°
2026-05-04 17:50 51.60225 -2.44461 11373 ft 279 kts 268°
2026-05-04 17:50 51.60229 -2.47520 11134 ft 276 kts 269°
2026-05-04 17:51 51.60224 -2.50583 10888 ft 273 kts 268°
2026-05-04 17:51 51.60227 -2.53625 10638 ft 270 kts 268°
2026-05-04 17:51 51.60223 -2.56623 10391 ft 267 kts 268°
2026-05-04 17:51 51.60213 -2.59587 10145 ft 262 kts 268°
2026-05-04 17:52 51.60208 -2.62492 9891 ft 255 kts 268°
2026-05-04 17:52 51.60211 -2.65313 9617 ft 252 kts 268°
2026-05-04 17:52 51.60208 -2.68111 9351 ft 248 kts 267°
2026-05-04 17:52 51.60208 -2.70858 9086 ft 244 kts 268°
2026-05-04 17:53 51.60212 -2.73578 8824 ft 242 kts 268°
2026-05-04 17:53 51.60127 -2.76299 8537 ft 240 kts 253°
2026-05-04 17:53 51.59356 -2.78580 8296 ft 237 kts 223°
2026-05-04 17:53 51.57937 -2.79882 8045 ft 240 kts 192°
2026-05-04 17:54 51.56283 -2.79795 7796 ft 244 kts 162°
2026-05-04 17:54 51.54845 -2.78289 7547 ft 248 kts 130°
2026-05-04 17:54 51.53881 -2.75970 7343 ft 251 kts 121°
2026-05-04 17:54 51.53029 -2.73595 7088 ft 247 kts 122°
2026-05-04 17:55 51.51856 -2.71648 6808 ft 242 kts 152°
2026-05-04 17:55 51.50265 -2.70977 6549 ft 237 kts 183°
2026-05-04 17:55 51.48701 -2.71766 6295 ft 235 kts 215°
2026-05-04 17:55 51.47668 -2.73708 6042 ft 235 kts 247°
2026-05-04 17:56 51.47363 -2.76262 5807 ft 235 kts 268°
2026-05-04 17:56 51.47332 -2.78896 5558 ft 236 kts 270°
2026-05-04 17:56 51.47323 -2.81529 5307 ft 237 kts 270°
2026-05-04 17:56 51.47317 -2.84180 5055 ft 239 kts 270°
2026-05-04 17:57 51.47242 -2.86835 4796 ft 239 kts 259°
2026-05-04 17:57 51.46668 -2.89311 4562 ft 236 kts 240°
2026-05-04 17:57 51.45840 -2.91506 4498 ft 224 kts 239°
2026-05-04 17:57 51.45061 -2.93581 4456 ft 210 kts 239°
2026-05-04 17:58 51.44335 -2.95501 4467 ft 194 kts 236°
2026-05-04 17:58 51.43403 -2.97026 4526 ft 192 kts 220°
2026-05-04 17:58 51.42635 -2.98040 4387 ft 201 kts 218°
2026-05-04 17:58 51.41361 -2.98957 4123 ft 203 kts 186°
2026-05-04 17:59 51.39965 -2.99018 3894 ft 199 kts 179°
2026-05-04 17:59 51.38612 -2.98758 3598 ft 195 kts 154°
2026-05-04 17:59 51.36956 -2.95628 3105 ft 185 kts 101°
2026-05-04 18:00 51.37067 -2.93633 2883 ft 177 kts 69°
2026-05-04 18:00 51.37512 -2.91814 2705 ft 177 kts 67°
2026-05-04 18:00 51.37975 -2.89993 2551 ft 178 kts 67°
2026-05-04 18:00 51.38382 -2.88392 2529 ft 183 kts 66°
2026-05-04 18:01 51.38853 -2.86537 2507 ft 181 kts 67°
2026-05-04 18:01 51.39332 -2.84646 2190 ft 185 kts 68°
2026-05-04 18:01 51.39678 -2.82734 2042 ft 174 kts 89°
2026-05-04 18:02 51.39498 -2.79047 2685 ft 170 kts 79°
2026-05-04 18:02 51.39619 -2.77075 3342 ft 180 kts 88°
2026-05-04 18:02 51.39593 -2.75087 4062 ft 192 kts 90°
2026-05-04 18:02 51.39567 -2.72836 4885 ft 202 kts 90°
2026-05-04 18:03 51.39648 -2.70511 5396 ft 221 kts 80°
2026-05-04 18:03 51.39974 -2.68015 5640 ft 237 kts 69°
2026-05-04 18:03 51.40928 -2.65863 5683 ft 242 kts 39°
2026-05-04 18:03 51.42452 -2.64750 5397 ft 243 kts
2026-05-04 18:04 51.44119 -2.64604 5130 ft 244 kts
2026-05-04 18:04 51.45790 -2.64578 4880 ft 239 kts
2026-05-04 18:04 51.49010 -2.64555 4534 ft 233 kts
2026-05-04 18:05 51.50635 -2.64565 4508 ft 233 kts 357°
2026-05-04 18:05 51.52147 -2.65266 4495 ft 230 kts 326°
2026-05-04 18:05 51.53185 -2.67131 4504 ft 233 kts 295°
2026-05-04 18:05 51.53454 -2.69748 4509 ft 236 kts 262°
2026-05-04 18:06 51.52084 -2.74517 4506 ft 240 kts 240°
2026-05-04 18:06 51.51236 -2.76857 4496 ft 240 kts 240°
2026-05-04 18:06 51.50392 -2.79167 4497 ft 240 kts 240°
2026-05-04 18:07 51.49552 -2.81450 4490 ft 240 kts 240°
2026-05-04 18:07 51.48700 -2.83758 4489 ft 238 kts 240°
2026-05-04 18:07 51.47862 -2.86033 4488 ft 238 kts 240°
2026-05-04 18:07 51.47019 -2.88322 4503 ft 237 kts 240°
2026-05-04 18:08 51.46184 -2.90557 4495 ft 237 kts 240°
2026-05-04 18:08 51.45358 -2.92759 4490 ft 223 kts 240°
2026-05-04 18:08 51.44522 -2.94795 4462 ft 209 kts 226°
2026-05-04 18:08 51.43344 -2.96012 4489 ft 207 kts 206°
2026-05-04 18:09 51.40574 -2.97785 3959 ft 214 kts 200°
2026-05-04 18:09 51.37750 -2.98687 3441 ft 207 kts 160°
2026-05-04 18:10 51.36643 -2.97386 3154 ft 198 kts 116°
2026-05-04 18:10 51.36472 -2.95359 2906 ft 186 kts 70°
2026-05-04 18:10 51.37039 -2.93545 2701 ft 186 kts 63°
2026-05-04 18:10 51.37353 -2.91556 2549 ft 188 kts 84°
2026-05-04 18:11 51.37548 -2.89466 2531 ft 192 kts 77°
2026-05-04 18:11 51.37708 -2.87318 2374 ft 193 kts 86°
2026-05-04 18:11 51.37761 -2.85232 2134 ft 186 kts 84°
2026-05-04 18:11 51.37835 -2.83199 1886 ft 174 kts 84°
2026-05-04 18:12 51.37905 -2.81339 1671 ft 162 kts 84°
2026-05-04 18:12 51.37969 -2.79641 1489 ft 141 kts 83°
2026-05-04 18:12 51.38028 -2.78113 1270 ft 138 kts 84°
2026-05-04 18:12 51.38085 -2.76605 1065 ft 134 kts 83°
2026-05-04 18:13 51.38147 -2.75138 854 ft 128 kts 82°
2026-05-04 18:13 51.38198 -2.73720 722 ft 130 kts 85°
2026-05-04 18:13 51.38296 -2.71220 604 ft 64 kts 86°
2026-05-04 18:14 51.38314 -2.70717 607 ft 30 kts 86°
2026-05-04 18:14 51.38326 -2.70523 621 ft 10 kts 67°
2026-05-04 18:14 51.38387 -2.70499 609 ft 10 kts 347°
2026-05-04 18:15 51.38476 -2.70630 613 ft 10 kts 267°
2026-05-04 18:15 51.38470 -2.70815 616 ft 6 kts 266°
2026-05-04 18:15 51.38467 -2.70895 617 ft 9 kts 266°
2026-05-04 18:16 51.38463 -2.70998 614 ft 9 kts 267°
2026-05-04 18:16 51.38459 -2.71095 614 ft 5 kts 265°
2026-05-04 18:16 51.38474 -2.71135 624 ft 6 kts 342°
2026-05-04 18:17 51.38517 -2.71141 610 ft 0 kts 356°
2026-05-04 18:17 51.38518 -2.71141 610 ft 0 kts 356°